JBU1703 TJSJ-SKRG

Flight info

Callsign JBU1703
Flight time 2h 47m
Altitude 34000
Route SJU RTE2 BQN B520 ANTEX DCT ILAMO UM525 SELAN UG444 ELB DCT DIMOL DCT OBLUL OBLUL1A
Aircraft A320/M-SDE3FGHIRWY/LB1

Departure

Time 2026-04-23 14:14
Airport Luis Munoz Marin International Airport (TJSJ)

Arrival

Time 2026-04-23 17:01
Airport Jose Maria Córdova International Airport (SKRG)
Time Latitude Longitude Altitude Speed Heading
2026-04-23 13:55 18.43552 -66.00649 17 ft 0 kts 360°
2026-04-23 14:03 18.43536 -66.00649 17 ft 3 kts 360°
2026-04-23 14:04 18.43519 -66.00649 20 ft 3 kts 360°
2026-04-23 14:04 18.43501 -66.00649 17 ft 3 kts 360°
2026-04-23 14:04 18.43484 -66.00647 17 ft 3 kts 328°
2026-04-23 14:04 18.43470 -66.00634 17 ft 3 kts 292°
2026-04-23 14:05 18.43465 -66.00617 18 ft 3 kts 271°
2026-04-23 14:05 18.43465 -66.00613 17 ft 0 kts 271°
2026-04-23 14:09 18.43465 -66.00614 17 ft 1 kts 271°
2026-04-23 14:09 18.43465 -66.00639 17 ft 7 kts 271°
2026-04-23 14:09 18.43466 -66.00715 17 ft 13 kts 270°
2026-04-23 14:10 18.43466 -66.00814 17 ft 14 kts 270°
2026-04-23 14:10 18.43466 -66.00925 17 ft 16 kts 270°
2026-04-23 14:10 18.43466 -66.01049 17 ft 18 kts 270°
2026-04-23 14:10 18.43467 -66.01186 17 ft 20 kts 270°
2026-04-23 14:11 18.43467 -66.01334 17 ft 19 kts 270°
2026-04-23 14:11 18.43493 -66.01433 17 ft 13 kts 332°
2026-04-23 14:11 18.43591 -66.01437 17 ft 15 kts
2026-04-23 14:11 18.43702 -66.01437 17 ft 16 kts
2026-04-23 14:12 18.43756 -66.01475 17 ft 10 kts 277°
2026-04-23 14:12 18.43780 -66.01546 17 ft 12 kts 321°
2026-04-23 14:12 18.43836 -66.01573 17 ft 6 kts 19°
2026-04-23 14:12 18.43854 -66.01542 19 ft 0 kts 67°
2026-04-23 14:13 18.43861 -66.01524 17 ft 9 kts 67°
2026-04-23 14:13 18.43990 -66.01206 17 ft 87 kts 67°
2026-04-23 14:13 18.44316 -66.00404 19 ft 148 kts 67°
2026-04-23 14:13 18.44769 -65.99268 303 ft 176 kts 67°
2026-04-23 14:14 18.45309 -65.98087 1054 ft 182 kts 51°
2026-04-23 14:14 18.46333 -65.97367 1807 ft 186 kts 14°
2026-04-23 14:14 18.47696 -65.97425 2067 ft 207 kts 343°
2026-04-23 14:14 18.49098 -65.97987 2273 ft 231 kts 337°
2026-04-23 14:15 18.50647 -65.98703 2604 ft 255 kts 336°
2026-04-23 14:15 18.52302 -65.99479 3269 ft 264 kts 336°
2026-04-23 14:15 18.53992 -66.00277 4095 ft 268 kts 336°
2026-04-23 14:15 18.55704 -66.01087 4938 ft 271 kts 336°
2026-04-23 14:16 18.57435 -66.01907 5757 ft 275 kts 336°
2026-04-23 14:16 18.59191 -66.02737 6552 ft 278 kts 336°
2026-04-23 14:16 18.60909 -66.03694 7272 ft 282 kts 322°
2026-04-23 14:16 18.62198 -66.05249 7986 ft 285 kts 297°
2026-04-23 14:17 18.62759 -66.07245 8726 ft 287 kts 272°
2026-04-23 14:17 18.62602 -66.09347 9469 ft 289 kts 262°
2026-04-23 14:17 18.62337 -66.11458 10199 ft 291 kts 262°
2026-04-23 14:17 18.62064 -66.13623 10591 ft 305 kts 262°
2026-04-23 14:18 18.61780 -66.15893 10948 ft 319 kts 262°
2026-04-23 14:18 18.61484 -66.18261 11304 ft 332 kts 262°
2026-04-23 14:18 18.61179 -66.20717 11673 ft 344 kts 263°
2026-04-23 14:18 18.60863 -66.23258 11997 ft 356 kts 262°
2026-04-23 14:19 18.60539 -66.25870 12469 ft 362 kts 263°
2026-04-23 14:19 18.60213 -66.28513 13035 ft 365 kts 263°
2026-04-23 14:19 18.59885 -66.31178 13620 ft 368 kts 263°
2026-04-23 14:19 18.59555 -66.33861 14156 ft 371 kts 263°
2026-04-23 14:20 18.59223 -66.36561 14661 ft 373 kts 263°
2026-04-23 14:20 18.58889 -66.39281 15157 ft 375 kts 263°
2026-04-23 14:20 18.58553 -66.42016 15657 ft 377 kts 263°
2026-04-23 14:20 18.58213 -66.44763 16152 ft 380 kts 263°
2026-04-23 14:21 18.57867 -66.47531 16643 ft 382 kts 263°
2026-04-23 14:21 18.57517 -66.50316 17139 ft 384 kts 263°
2026-04-23 14:21 18.57163 -66.53115 17631 ft 387 kts 263°
2026-04-23 14:21 18.56807 -66.55934 18117 ft 389 kts 263°
2026-04-23 14:22 18.56448 -66.58767 18566 ft 392 kts 263°
2026-04-23 14:22 18.56089 -66.61618 18997 ft 393 kts 263°
2026-04-23 14:22 18.55731 -66.64477 19459 ft 394 kts 263°
2026-04-23 14:22 18.55370 -66.67344 19922 ft 395 kts 263°
2026-04-23 14:23 18.55007 -66.70215 20376 ft 396 kts 263°
2026-04-23 14:23 18.54643 -66.73097 20821 ft 397 kts 263°
2026-04-23 14:23 18.54278 -66.75982 21260 ft 398 kts 263°
2026-04-23 14:23 18.53913 -66.78873 21698 ft 399 kts 263°
2026-04-23 14:24 18.53545 -66.81774 22112 ft 400 kts 263°
2026-04-23 14:24 18.52986 -66.84643 22507 ft 402 kts 252°
2026-04-23 14:24 18.51710 -66.87275 22890 ft 407 kts 239°
2026-04-23 14:24 18.50141 -66.89760 23278 ft 408 kts 239°
2026-04-23 14:25 18.48565 -66.92251 23654 ft 409 kts 239°
2026-04-23 14:25 18.46984 -66.94752 23975 ft 410 kts 239°
2026-04-23 14:25 18.45937 -66.96408 24181 ft 411 kts 239°
2026-04-23 14:25 18.43812 -66.99772 24587 ft 413 kts 239°
2026-04-23 14:26 18.42759 -67.01440 24785 ft 414 kts 239°
2026-04-23 14:26 18.41162 -67.03967 25088 ft 415 kts 239°
2026-04-23 14:26 18.39562 -67.06501 25382 ft 416 kts 239°
2026-04-23 14:26 18.37957 -67.09043 25685 ft 418 kts 239°
2026-04-23 14:27 18.36343 -67.11591 25981 ft 419 kts 238°
2026-04-23 14:27 18.34721 -67.14149 26287 ft 421 kts 238°
2026-04-23 14:27 18.33096 -67.16713 26586 ft 422 kts 238°
2026-04-23 14:27 18.31467 -67.19287 26875 ft 423 kts 238°
2026-04-23 14:28 18.29830 -67.21870 27173 ft 425 kts 238°
2026-04-23 14:28 18.28185 -67.24459 27475 ft 426 kts 238°
2026-04-23 14:28 18.26541 -67.27047 27883 ft 424 kts 238°
2026-04-23 14:28 18.24903 -67.29625 28314 ft 423 kts 238°
2026-04-23 14:29 18.23273 -67.32190 28743 ft 421 kts 238°
2026-04-23 14:29 18.21671 -67.34710 29171 ft 420 kts 238°
2026-04-23 14:29 18.20054 -67.37262 29606 ft 418 kts 238°
2026-04-23 14:29 18.18443 -67.39802 30056 ft 417 kts 238°
2026-04-23 14:30 18.16834 -67.42333 30446 ft 415 kts 238°
2026-04-23 14:30 18.15229 -67.44849 30830 ft 414 kts 238°
2026-04-23 14:30 18.13630 -67.47358 31216 ft 412 kts 238°
2026-04-23 14:30 18.12041 -67.49860 31612 ft 411 kts 238°
2026-04-23 14:31 18.10462 -67.52355 32008 ft 409 kts 238°
2026-04-23 14:31 18.08888 -67.54837 32427 ft 407 kts 238°
2026-04-23 14:31 18.07319 -67.57306 32827 ft 405 kts 238°
2026-04-23 14:31 18.05754 -67.59760 33235 ft 404 kts 238°
2026-04-23 14:32 18.04190 -67.62204 33656 ft 402 kts 238°
2026-04-23 14:32 18.02636 -67.64634 33974 ft 401 kts 238°
2026-04-23 14:32 17.99498 -67.69543 34049 ft 410 kts 238°
2026-04-23 14:33 17.96298 -67.74548 34050 ft 414 kts 238°
2026-04-23 14:33 17.93091 -67.79565 34054 ft 414 kts 238°
2026-04-23 14:34 17.89877 -67.84595 34051 ft 414 kts 238°
2026-04-23 14:34 17.86671 -67.89617 34056 ft 414 kts 238°
2026-04-23 14:35 17.83449 -67.94633 34054 ft 414 kts 238°
2026-04-23 14:35 17.80249 -67.99611 34051 ft 414 kts 238°
2026-04-23 14:36 17.77030 -68.04631 34043 ft 414 kts 238°
2026-04-23 14:36 17.73809 -68.09647 34048 ft 415 kts 238°
2026-04-23 14:37 17.70591 -68.14664 34047 ft 415 kts 238°
2026-04-23 14:37 17.67367 -68.19677 34048 ft 415 kts 238°
2026-04-23 14:38 17.64134 -68.24689 34046 ft 415 kts 238°
2026-04-23 14:38 17.60908 -68.29702 34043 ft 415 kts 238°
2026-04-23 14:39 17.57677 -68.34719 34047 ft 415 kts 238°
2026-04-23 14:39 17.54443 -68.39732 34046 ft 415 kts 238°
2026-04-23 14:40 17.51203 -68.44743 34046 ft 415 kts 238°
2026-04-23 14:40 17.47964 -68.49754 34048 ft 415 kts 238°
2026-04-23 14:41 17.44726 -68.54768 34052 ft 416 kts 238°
2026-04-23 14:41 17.41491 -68.59779 34051 ft 415 kts 238°
2026-04-23 14:42 17.38245 -68.64783 34050 ft 415 kts 238°
2026-04-23 14:42 17.34999 -68.69783 34048 ft 415 kts 238°
2026-04-23 14:43 17.31755 -68.74784 34051 ft 415 kts 238°
2026-04-23 14:43 17.28513 -68.79784 34049 ft 415 kts 238°
2026-04-23 14:44 17.25266 -68.84781 34051 ft 415 kts 238°
2026-04-23 14:44 17.22040 -68.89747 34046 ft 416 kts 238°
2026-04-23 14:45 17.18787 -68.94746 34050 ft 416 kts 238°
2026-04-23 14:45 17.15537 -68.99750 34051 ft 416 kts 238°
2026-04-23 14:46 17.12279 -69.04747 34052 ft 416 kts 238°
2026-04-23 14:46 17.09016 -69.09742 34052 ft 416 kts 238°
2026-04-23 14:47 17.05760 -69.14736 34054 ft 416 kts 238°
2026-04-23 14:47 17.02507 -69.19731 34049 ft 416 kts 237°
2026-04-23 14:48 16.99248 -69.24716 34050 ft 415 kts 237°
2026-04-23 14:48 16.95989 -69.29700 34049 ft 415 kts 237°
2026-04-23 14:49 16.92730 -69.34681 34050 ft 415 kts 237°
2026-04-23 14:49 16.89475 -69.39665 34050 ft 415 kts 237°
2026-04-23 14:50 16.86211 -69.44645 34049 ft 416 kts 237°
2026-04-23 14:50 16.82947 -69.49621 34045 ft 416 kts 237°
2026-04-23 14:51 16.79680 -69.54600 34046 ft 416 kts 237°
2026-04-23 14:51 16.76416 -69.59576 34047 ft 416 kts 237°
2026-04-23 14:52 16.73149 -69.64553 34041 ft 416 kts 237°
2026-04-23 14:52 16.69880 -69.69529 34040 ft 416 kts 237°
2026-04-23 14:53 16.66601 -69.74500 34040 ft 416 kts 237°
2026-04-23 14:53 16.63328 -69.79471 34035 ft 416 kts 237°
2026-04-23 14:54 16.60054 -69.84445 34035 ft 416 kts 237°
2026-04-23 14:54 16.56775 -69.89415 34032 ft 416 kts 237°
2026-04-23 14:55 16.53491 -69.94385 34031 ft 416 kts 237°
2026-04-23 14:55 16.50213 -69.99358 34027 ft 416 kts 237°
2026-04-23 14:56 16.46930 -70.04333 34026 ft 417 kts 237°
2026-04-23 14:56 16.43640 -70.09308 34022 ft 417 kts 237°
2026-04-23 14:57 16.40367 -70.14243 34026 ft 417 kts 236°
2026-04-23 14:57 16.37078 -70.19220 34021 ft 417 kts 237°
2026-04-23 14:58 16.33786 -70.24200 34027 ft 417 kts 236°
2026-04-23 14:58 16.30485 -70.29174 34029 ft 418 kts 236°
2026-04-23 14:59 16.27181 -70.34147 34031 ft 418 kts 236°
2026-04-23 14:59 16.23880 -70.39122 34030 ft 418 kts 236°
2026-04-23 15:00 16.20579 -70.44099 34028 ft 418 kts 236°
2026-04-23 15:00 16.17269 -70.49069 34027 ft 418 kts 236°
2026-04-23 15:01 16.13955 -70.54042 34029 ft 418 kts 236°
2026-04-23 15:01 16.10666 -70.58983 34027 ft 418 kts 236°
2026-04-23 15:02 16.07335 -70.63994 34024 ft 419 kts 236°
2026-04-23 15:02 16.04018 -70.68971 34023 ft 419 kts 236°
2026-04-23 15:03 16.00721 -70.73909 34023 ft 419 kts 236°
2026-04-23 15:03 15.97070 -70.78631 34027 ft 419 kts 231°
2026-04-23 15:04 15.93313 -70.83271 34017 ft 420 kts 231°
2026-04-23 15:04 15.89549 -70.87906 34014 ft 420 kts 231°
2026-04-23 15:05 15.85787 -70.92547 34018 ft 420 kts 231°
2026-04-23 15:05 15.82024 -70.97192 34014 ft 420 kts 231°
2026-04-23 15:06 15.78256 -71.01840 34010 ft 421 kts 231°
2026-04-23 15:06 15.74479 -71.06490 34008 ft 421 kts 231°
2026-04-23 15:07 15.70677 -71.11121 34008 ft 422 kts 230°
2026-04-23 15:07 15.66831 -71.15723 34006 ft 422 kts 230°
2026-04-23 15:08 15.62976 -71.20326 34011 ft 422 kts 230°
2026-04-23 15:09 15.57204 -71.27248 34010 ft 423 kts 230°
2026-04-23 15:09 15.53352 -71.31863 34005 ft 423 kts 230°
2026-04-23 15:10 15.50185 -71.35732 34006 ft 423 kts 231°
2026-04-23 15:10 15.45792 -71.41230 34009 ft 424 kts 231°
2026-04-23 15:11 15.42024 -71.45933 34004 ft 424 kts 231°
2026-04-23 15:11 15.38265 -71.50591 34007 ft 424 kts 231°
2026-04-23 15:12 15.34444 -71.55307 34004 ft 425 kts 231°
2026-04-23 15:12 15.30667 -71.59958 34006 ft 425 kts 231°
2026-04-23 15:13 15.26873 -71.64652 34005 ft 425 kts 231°
2026-04-23 15:13 15.23050 -71.69375 34005 ft 425 kts 231°
2026-04-23 15:14 15.19271 -71.74036 34004 ft 425 kts 231°
2026-04-23 15:14 15.15466 -71.78727 34004 ft 426 kts 231°
2026-04-23 15:15 15.11652 -71.83418 34002 ft 426 kts 231°
2026-04-23 15:15 15.07838 -71.88109 34001 ft 426 kts 231°
2026-04-23 15:16 15.04024 -71.92804 34000 ft 426 kts 231°
2026-04-23 15:16 15.00831 -71.96741 34001 ft 426 kts 231°
2026-04-23 15:17 14.97010 -72.01432 34006 ft 427 kts 231°
2026-04-23 15:17 14.93184 -72.06126 34001 ft 427 kts 231°
2026-04-23 15:18 14.89358 -72.10822 33997 ft 427 kts 231°
2026-04-23 15:18 14.85525 -72.15518 34002 ft 427 kts 231°
2026-04-23 15:19 14.81698 -72.20217 34000 ft 428 kts 231°
2026-04-23 15:19 14.77866 -72.24920 33999 ft 428 kts 231°
2026-04-23 15:20 14.74024 -72.29619 34000 ft 428 kts 231°
2026-04-23 15:20 14.70211 -72.34287 34001 ft 428 kts 231°
2026-04-23 15:21 14.66373 -72.38996 33998 ft 428 kts 231°
2026-04-23 15:21 14.62527 -72.43698 33998 ft 429 kts 231°
2026-04-23 15:22 14.58689 -72.48408 33996 ft 429 kts 231°
2026-04-23 15:22 14.54868 -72.53141 33998 ft 429 kts 231°
2026-04-23 15:23 14.51003 -72.57842 33994 ft 430 kts 230°
2026-04-23 15:23 14.47083 -72.62501 33997 ft 430 kts 230°
2026-04-23 15:24 14.43164 -72.67163 33998 ft 430 kts 230°
2026-04-23 15:24 14.39252 -72.71836 33995 ft 431 kts 230°
2026-04-23 15:25 14.35368 -72.76540 33998 ft 431 kts 231°
2026-04-23 15:25 14.31501 -72.81261 33997 ft 431 kts 231°
2026-04-23 15:26 14.27621 -72.85974 33997 ft 431 kts 230°
2026-04-23 15:26 14.23729 -72.90683 33995 ft 431 kts 230°
2026-04-23 15:27 14.19839 -72.95399 33997 ft 432 kts 230°
2026-04-23 15:27 14.15939 -73.00106 33993 ft 432 kts 230°
2026-04-23 15:28 14.12040 -73.04818 33997 ft 432 kts 230°
2026-04-23 15:28 14.08141 -73.09537 33995 ft 432 kts 230°
2026-04-23 15:29 14.04241 -73.14255 33996 ft 433 kts 230°
2026-04-23 15:29 14.00327 -73.18970 33995 ft 433 kts 230°
2026-04-23 15:30 13.96420 -73.23688 33996 ft 433 kts 230°
2026-04-23 15:30 13.92530 -73.28371 33996 ft 433 kts 230°
2026-04-23 15:31 13.87875 -73.32288 33994 ft 437 kts 210°
2026-04-23 15:31 13.85074 -73.33516 33996 ft 440 kts 199°
2026-04-23 15:31 13.82076 -73.34188 33994 ft 443 kts 190°
2026-04-23 15:32 13.75954 -73.34994 33991 ft 444 kts 190°
2026-04-23 15:32 13.69826 -73.35807 33993 ft 444 kts 190°
2026-04-23 15:33 13.63695 -73.36635 33998 ft 444 kts 190°
2026-04-23 15:33 13.57568 -73.37459 34007 ft 444 kts 190°
2026-04-23 15:34 13.51440 -73.38267 34011 ft 444 kts 190°
2026-04-23 15:34 13.45314 -73.39081 34011 ft 444 kts 190°
2026-04-23 15:35 13.39192 -73.39892 34008 ft 444 kts 190°
2026-04-23 15:35 13.33069 -73.40706 34008 ft 443 kts 189°
2026-04-23 15:36 13.26948 -73.41513 34009 ft 443 kts 189°
2026-04-23 15:36 13.20874 -73.42319 34011 ft 443 kts 189°
2026-04-23 15:37 13.14756 -73.43132 34007 ft 443 kts 189°
2026-04-23 15:37 13.08642 -73.43944 34010 ft 443 kts 189°
2026-04-23 15:38 13.02528 -73.44753 34006 ft 443 kts 189°
2026-04-23 15:38 12.96413 -73.45560 34000 ft 443 kts 189°
2026-04-23 15:39 12.90303 -73.46368 34002 ft 442 kts 189°
2026-04-23 15:39 12.84198 -73.47179 33997 ft 442 kts 189°
2026-04-23 15:40 12.78094 -73.47982 33995 ft 442 kts 189°
2026-04-23 15:40 12.71998 -73.48787 33995 ft 442 kts 189°
2026-04-23 15:41 12.65895 -73.49588 33990 ft 442 kts 189°
2026-04-23 15:41 12.59789 -73.50391 33997 ft 443 kts 189°
2026-04-23 15:42 12.53677 -73.51202 33990 ft 443 kts 189°
2026-04-23 15:42 12.47558 -73.52010 33992 ft 444 kts 189°
2026-04-23 15:43 12.41434 -73.52818 33981 ft 444 kts 189°
2026-04-23 15:43 12.35299 -73.53623 33978 ft 444 kts 189°
2026-04-23 15:44 12.29166 -73.54427 33977 ft 445 kts 189°
2026-04-23 15:44 12.23026 -73.55236 33982 ft 445 kts 189°
2026-04-23 15:45 12.16882 -73.56047 33985 ft 445 kts 189°
2026-04-23 15:45 12.10774 -73.56854 33983 ft 445 kts 189°
2026-04-23 15:46 12.04628 -73.57664 33985 ft 445 kts 189°
2026-04-23 15:46 11.98485 -73.58468 33982 ft 445 kts 189°
2026-04-23 15:47 11.92345 -73.59277 33986 ft 445 kts 189°
2026-04-23 15:47 11.86207 -73.60080 33984 ft 445 kts 189°
2026-04-23 15:48 11.80069 -73.60883 33985 ft 444 kts 188°
2026-04-23 15:48 11.73939 -73.61677 33989 ft 444 kts 188°
2026-04-23 15:49 11.67815 -73.62485 33989 ft 443 kts 189°
2026-04-23 15:49 11.61700 -73.63293 33989 ft 443 kts 188°
2026-04-23 15:50 11.55587 -73.64100 33988 ft 443 kts 188°
2026-04-23 15:50 11.49473 -73.64902 33992 ft 443 kts 188°
2026-04-23 15:51 11.43354 -73.65705 33991 ft 443 kts 188°
2026-04-23 15:51 11.37227 -73.66501 33994 ft 444 kts 188°
2026-04-23 15:52 11.31095 -73.67298 34005 ft 445 kts 188°
2026-04-23 15:52 11.24957 -73.68105 34023 ft 445 kts 188°
2026-04-23 15:53 11.18812 -73.68912 34044 ft 445 kts 188°
2026-04-23 15:53 11.12702 -73.69701 34060 ft 446 kts 188°
2026-04-23 15:54 11.06545 -73.70498 34079 ft 446 kts 188°
2026-04-23 15:54 11.00383 -73.71302 34097 ft 447 kts 188°
2026-04-23 15:55 10.94215 -73.72109 34105 ft 447 kts 188°
2026-04-23 15:55 10.88045 -73.72929 34108 ft 447 kts 188°
2026-04-23 15:56 10.81864 -73.73741 34120 ft 448 kts 188°
2026-04-23 15:56 10.75676 -73.74543 34114 ft 448 kts 188°
2026-04-23 15:57 10.69486 -73.75352 34112 ft 449 kts 188°
2026-04-23 15:57 10.63286 -73.76161 34103 ft 449 kts 188°
2026-04-23 15:58 10.57081 -73.76957 34090 ft 450 kts 187°
2026-04-23 15:58 10.50873 -73.77762 34069 ft 450 kts 188°
2026-04-23 15:59 10.44668 -73.78572 34052 ft 450 kts 188°
2026-04-23 15:59 10.38453 -73.79385 34036 ft 450 kts 187°
2026-04-23 16:00 10.32235 -73.80196 34020 ft 451 kts 187°
2026-04-23 16:00 10.26006 -73.81006 34006 ft 451 kts 187°
2026-04-23 16:01 10.19815 -73.81809 33995 ft 452 kts 187°
2026-04-23 16:01 10.13535 -73.82623 33991 ft 452 kts 187°
2026-04-23 16:02 10.07290 -73.83431 33984 ft 453 kts 187°
2026-04-23 16:02 10.01083 -73.84232 33984 ft 453 kts 187°
2026-04-23 16:03 9.94829 -73.85043 33982 ft 453 kts 187°
2026-04-23 16:03 9.88575 -73.85858 33984 ft 453 kts 187°
2026-04-23 16:04 9.82321 -73.86671 33983 ft 453 kts 187°
2026-04-23 16:04 9.76072 -73.87478 33983 ft 453 kts 187°
2026-04-23 16:05 9.70835 -73.88156 33985 ft 453 kts 187°
2026-04-23 16:05 9.63577 -73.89097 33991 ft 452 kts 187°
2026-04-23 16:06 9.58344 -73.89771 33986 ft 452 kts 187°
2026-04-23 16:06 9.52103 -73.90575 33986 ft 452 kts 187°
2026-04-23 16:07 9.45906 -73.91374 33983 ft 452 kts 187°
2026-04-23 16:07 9.39668 -73.92181 33985 ft 452 kts 187°
2026-04-23 16:08 9.33432 -73.92987 33984 ft 452 kts 187°
2026-04-23 16:08 9.27197 -73.93800 33980 ft 452 kts 187°
2026-04-23 16:09 9.20962 -73.94603 33976 ft 452 kts 187°
2026-04-23 16:09 9.14725 -73.95404 33976 ft 452 kts 187°
2026-04-23 16:10 9.08481 -73.96207 33973 ft 452 kts 187°
2026-04-23 16:10 9.02341 -73.97524 33970 ft 453 kts 200°
2026-04-23 16:11 8.96427 -73.99720 33967 ft 453 kts 199°
2026-04-23 16:11 8.90496 -74.01894 33963 ft 454 kts 199°
2026-04-23 16:12 8.84561 -74.04073 33971 ft 454 kts 199°
2026-04-23 16:12 8.78630 -74.06260 33967 ft 454 kts 200°
2026-04-23 16:13 8.72695 -74.08448 33972 ft 454 kts 199°
2026-04-23 16:13 8.63786 -74.11722 33979 ft 454 kts 199°
2026-04-23 16:14 8.57845 -74.13905 33986 ft 454 kts 199°
2026-04-23 16:14 8.51911 -74.16092 33991 ft 454 kts 199°
2026-04-23 16:15 8.45984 -74.18272 33993 ft 453 kts 199°
2026-04-23 16:15 8.40053 -74.20448 33994 ft 453 kts 199°
2026-04-23 16:16 8.34118 -74.22621 33995 ft 454 kts 199°
2026-04-23 16:16 8.28181 -74.24799 33997 ft 454 kts 199°
2026-04-23 16:17 8.22236 -74.26984 34004 ft 455 kts 199°
2026-04-23 16:17 8.16288 -74.29164 34011 ft 455 kts 199°
2026-04-23 16:18 8.10333 -74.31349 34013 ft 455 kts 199°
2026-04-23 16:18 8.04415 -74.33522 34012 ft 456 kts 199°
2026-04-23 16:19 7.98449 -74.35707 34011 ft 456 kts 199°
2026-04-23 16:19 7.92479 -74.37891 34011 ft 457 kts 199°
2026-04-23 16:20 7.86499 -74.40074 34009 ft 457 kts 199°
2026-04-23 16:20 7.80519 -74.42270 34007 ft 458 kts 199°
2026-04-23 16:21 7.74532 -74.44466 34010 ft 458 kts 199°
2026-04-23 16:21 7.68546 -74.46663 34008 ft 458 kts 199°
2026-04-23 16:22 7.62550 -74.48854 34013 ft 458 kts 199°
2026-04-23 16:22 7.56556 -74.51040 34014 ft 458 kts 199°
2026-04-23 16:23 7.50561 -74.53229 34011 ft 458 kts 199°
2026-04-23 16:23 7.44573 -74.55423 34012 ft 458 kts 199°
2026-04-23 16:24 7.38589 -74.57615 34011 ft 458 kts 199°
2026-04-23 16:24 7.32601 -74.59804 34011 ft 457 kts 199°
2026-04-23 16:25 7.26847 -74.62429 34017 ft 457 kts 204°
2026-04-23 16:25 7.21148 -74.65274 34020 ft 457 kts 205°
2026-04-23 16:26 7.18309 -74.66706 33752 ft 456 kts 205°
2026-04-23 16:26 7.15470 -74.68134 33349 ft 456 kts 205°
2026-04-23 16:26 7.12631 -74.69555 32922 ft 456 kts 205°
2026-04-23 16:26 7.09780 -74.70975 32504 ft 458 kts 205°
2026-04-23 16:27 7.06920 -74.72398 32087 ft 459 kts 205°
2026-04-23 16:27 7.04046 -74.73822 31687 ft 461 kts 205°
2026-04-23 16:27 7.01159 -74.75246 31285 ft 463 kts 205°
2026-04-23 16:27 6.98253 -74.76664 30898 ft 465 kts 205°
2026-04-23 16:28 6.95336 -74.78080 30505 ft 467 kts 205°
2026-04-23 16:28 6.92404 -74.79502 30122 ft 469 kts 205°
2026-04-23 16:28 6.89463 -74.80931 29677 ft 470 kts 205°
2026-04-23 16:28 6.86517 -74.82365 29237 ft 470 kts 205°
2026-04-23 16:29 6.83584 -74.83797 28813 ft 467 kts 205°
2026-04-23 16:29 6.80668 -74.85225 28352 ft 464 kts 205°
2026-04-23 16:29 6.77774 -74.86639 27942 ft 461 kts 205°
2026-04-23 16:29 6.74897 -74.88041 27524 ft 458 kts 205°
2026-04-23 16:30 6.72039 -74.89430 27113 ft 455 kts 205°
2026-04-23 16:30 6.69198 -74.90812 26706 ft 452 kts 206°
2026-04-23 16:30 6.66380 -74.92185 26301 ft 449 kts 206°
2026-04-23 16:30 6.63581 -74.93548 25911 ft 446 kts 206°
2026-04-23 16:31 6.60801 -74.94904 25525 ft 443 kts 206°
2026-04-23 16:31 6.58036 -74.96253 25142 ft 440 kts 206°
2026-04-23 16:31 6.55293 -74.97591 24758 ft 437 kts 206°
2026-04-23 16:31 6.52604 -74.98902 24390 ft 434 kts 206°
2026-04-23 16:32 6.49893 -75.00224 24018 ft 432 kts 206°
2026-04-23 16:32 6.47199 -75.01537 23653 ft 429 kts 206°
2026-04-23 16:32 6.44521 -75.02840 23218 ft 427 kts 206°
2026-04-23 16:32 6.41858 -75.04133 22790 ft 424 kts 206°
2026-04-23 16:33 6.39212 -75.05417 22359 ft 420 kts 206°
2026-04-23 16:33 6.36590 -75.06691 21936 ft 416 kts 206°
2026-04-23 16:33 6.34013 -75.07947 21529 ft 409 kts 206°
2026-04-23 16:33 6.31471 -75.09186 21112 ft 403 kts 206°
2026-04-23 16:34 6.28968 -75.10407 20731 ft 397 kts 206°
2026-04-23 16:34 6.26496 -75.11613 20349 ft 392 kts 206°
2026-04-23 16:34 6.24057 -75.12802 19973 ft 387 kts 206°
2026-04-23 16:34 6.21654 -75.13974 19608 ft 381 kts 206°
2026-04-23 16:35 6.19301 -75.15122 19237 ft 371 kts 206°
2026-04-23 16:35 6.17010 -75.16237 18871 ft 361 kts 206°
2026-04-23 16:35 6.14773 -75.17326 18508 ft 353 kts 206°
2026-04-23 16:35 6.12589 -75.18390 18086 ft 345 kts 206°
2026-04-23 16:36 6.10446 -75.19434 17663 ft 339 kts 206°
2026-04-23 16:36 6.08345 -75.20457 17231 ft 333 kts 206°
2026-04-23 16:36 6.06276 -75.21462 16814 ft 326 kts 206°
2026-04-23 16:36 6.04267 -75.22439 16409 ft 316 kts 206°
2026-04-23 16:37 6.02319 -75.23386 15998 ft 307 kts 206°
2026-04-23 16:37 6.00421 -75.24309 15589 ft 299 kts 206°
2026-04-23 16:37 5.98572 -75.25208 15180 ft 292 kts 206°
2026-04-23 16:37 5.96764 -75.26089 14782 ft 285 kts 206°
2026-04-23 16:38 5.94999 -75.26951 14409 ft 279 kts 206°
2026-04-23 16:38 5.93302 -75.27778 14131 ft 271 kts 206°
2026-04-23 16:38 5.91612 -75.28601 13887 ft 269 kts 206°
2026-04-23 16:38 5.89954 -75.29452 13615 ft 266 kts 214°
2026-04-23 16:39 5.88616 -75.30707 13354 ft 264 kts 234°
2026-04-23 16:39 5.87810 -75.32344 13106 ft 262 kts 254°
2026-04-23 16:39 5.87604 -75.34139 12852 ft 256 kts 269°
2026-04-23 16:39 5.87598 -75.35892 12608 ft 246 kts 268°
2026-04-23 16:40 5.87604 -75.37590 12331 ft 243 kts 274°
2026-04-23 16:40 5.88018 -75.39273 11836 ft 255 kts 295°
2026-04-23 16:40 5.89026 -75.40715 11637 ft 252 kts 315°
2026-04-23 16:40 5.90439 -75.41702 11436 ft 244 kts 335°
2026-04-23 16:41 5.92054 -75.42138 11198 ft 239 kts 355°
2026-04-23 16:41 5.93705 -75.42166 10941 ft 237 kts 359°
2026-04-23 16:41 5.95309 -75.42174 10683 ft 224 kts 359°
2026-04-23 16:41 5.96831 -75.42184 10423 ft 215 kts 359°
2026-04-23 16:42 5.98297 -75.42193 10170 ft 205 kts 359°
2026-04-23 16:42 5.99695 -75.42203 9918 ft 197 kts 359°
2026-04-23 16:42 6.01054 -75.42212 9675 ft 194 kts 359°
2026-04-23 16:42 6.02396 -75.42220 9445 ft 192 kts 359°
2026-04-23 16:43 6.03708 -75.42229 9208 ft 191 kts 359°
2026-04-23 16:43 6.05029 -75.42238 8985 ft 189 kts 359°
2026-04-23 16:43 6.06342 -75.42246 8752 ft 188 kts 359°
2026-04-23 16:43 6.07623 -75.42254 8534 ft 175 kts 359°
2026-04-23 16:44 6.08811 -75.42262 8305 ft 167 kts 359°
2026-04-23 16:44 6.09960 -75.42270 8094 ft 164 kts 359°
2026-04-23 16:44 6.11091 -75.42277 7867 ft 162 kts 358°
2026-04-23 16:44 6.12214 -75.42285 7647 ft 161 kts 359°
2026-04-23 16:45 6.13328 -75.42293 7385 ft 159 kts 359°
2026-04-23 16:45 6.14432 -75.42301 7133 ft 158 kts 359°
2026-04-23 16:45 6.15523 -75.42309 6985 ft 153 kts 354°
2026-04-23 16:45 6.16550 -75.42320 6999 ft 143 kts 353°
2026-04-23 16:46 6.17542 -75.42301 7272 ft 143 kts
2026-04-23 16:46 6.18539 -75.42277 7773 ft 145 kts 360°
2026-04-23 16:46 6.19603 -75.42273 8056 ft 161 kts 359°
2026-04-23 16:46 6.20790 -75.42276 8311 ft 181 kts 359°
2026-04-23 16:47 6.22117 -75.42187 8537 ft 205 kts 18°
2026-04-23 16:47 6.23254 -75.41254 8787 ft 226 kts 62°
2026-04-23 16:47 6.23562 -75.39680 9050 ft 239 kts 94°
2026-04-23 16:47 6.23290 -75.38008 9468 ft 246 kts 105°
2026-04-23 16:48 6.22835 -75.36350 10209 ft 247 kts 107°
2026-04-23 16:48 6.22354 -75.34681 10829 ft 250 kts 107°
2026-04-23 16:48 6.21873 -75.32990 11479 ft 252 kts 107°
2026-04-23 16:48 6.21376 -75.31280 11852 ft 257 kts 111°
2026-04-23 16:49 6.20835 -75.30237 11923 ft 254 kts 130°
2026-04-23 16:49 6.18915 -75.28971 11960 ft 249 kts 166°
2026-04-23 16:49 6.17222 -75.28602 11957 ft 249 kts 171°
2026-04-23 16:49 6.15536 -75.28310 11954 ft 249 kts 172°
2026-04-23 16:50 6.13798 -75.28177 11974 ft 246 kts 187°
2026-04-23 16:50 6.12090 -75.28345 12215 ft 248 kts 186°
2026-04-23 16:50 6.10392 -75.28499 12447 ft 249 kts 186°
2026-04-23 16:50 6.08619 -75.28657 12682 ft 255 kts 186°
2026-04-23 16:51 6.06865 -75.28810 12860 ft 252 kts 186°
2026-04-23 16:51 6.05122 -75.28962 12905 ft 252 kts 186°
2026-04-23 16:51 6.03380 -75.29114 12896 ft 251 kts 186°
2026-04-23 16:51 6.01640 -75.29268 12885 ft 251 kts 186°
2026-04-23 16:52 5.99904 -75.29424 12875 ft 251 kts 186°
2026-04-23 16:52 5.98169 -75.29580 12853 ft 250 kts 186°
2026-04-23 16:52 5.96442 -75.29741 12841 ft 247 kts 187°
2026-04-23 16:52 5.94721 -75.29930 12820 ft 250 kts 187°
2026-04-23 16:53 5.92990 -75.30107 12808 ft 250 kts 186°
2026-04-23 16:53 5.91255 -75.30275 12790 ft 250 kts 186°
2026-04-23 16:53 5.89578 -75.30669 12768 ft 248 kts 208°
2026-04-23 16:53 5.88272 -75.31771 12760 ft 248 kts 235°
2026-04-23 16:54 5.87631 -75.33372 12514 ft 249 kts 263°
2026-04-23 16:54 5.87588 -75.35098 12280 ft 246 kts 268°
2026-04-23 16:54 5.87582 -75.36807 12042 ft 243 kts 269°
2026-04-23 16:54 5.87576 -75.38485 11833 ft 237 kts 269°
2026-04-23 16:55 5.87717 -75.40097 11768 ft 227 kts 284°
2026-04-23 16:55 5.88428 -75.41431 11716 ft 214 kts 314°
2026-04-23 16:55 5.89707 -75.42105 11566 ft 207 kts 349°
2026-04-23 16:55 5.91116 -75.42160 11359 ft 201 kts 359°
2026-04-23 16:56 5.92502 -75.42156 11124 ft 198 kts 359°
2026-04-23 16:56 5.93878 -75.42157 10890 ft 197 kts 358°
2026-04-23 16:56 5.94786 -75.42165 10748 ft 197 kts 358°
2026-04-23 16:56 5.96150 -75.42171 10527 ft 196 kts 359°
2026-04-23 16:57 5.97505 -75.42180 10300 ft 194 kts 358°
2026-04-23 16:57 5.98851 -75.42188 10075 ft 193 kts 359°
2026-04-23 16:57 6.00192 -75.42196 9840 ft 192 kts 359°
2026-04-23 16:57 6.01526 -75.42205 9596 ft 192 kts 358°
2026-04-23 16:58 6.02858 -75.42214 9363 ft 191 kts 359°
2026-04-23 16:58 6.04181 -75.42223 9125 ft 190 kts 358°
2026-04-23 16:58 6.05496 -75.42231 8898 ft 188 kts 358°
2026-04-23 16:58 6.06756 -75.42244 8690 ft 172 kts 359°
2026-04-23 16:59 6.07930 -75.42250 8472 ft 166 kts 359°
2026-04-23 16:59 6.09071 -75.42255 8263 ft 163 kts 359°
2026-04-23 16:59 6.10196 -75.42262 8048 ft 161 kts 358°
2026-04-23 16:59 6.11311 -75.42269 7853 ft 160 kts 359°
2026-04-23 17:00 6.12423 -75.42278 7617 ft 159 kts 358°
2026-04-23 17:00 6.13527 -75.42292 7379 ft 158 kts 360°
2026-04-23 17:00 6.14623 -75.42302 7103 ft 157 kts
2026-04-23 17:00 6.15688 -75.42309 6982 ft 140 kts
2026-04-23 17:01 6.16496 -75.42313 6992 ft 91 kts 360°
2026-04-23 17:01 6.17017 -75.42316 7013 ft 67 kts 360°
2026-04-23 17:01 6.17422 -75.42318 7022 ft 42 kts 359°
2026-04-23 17:01 6.17562 -75.42347 7020 ft 11 kts 292°
2026-04-23 17:02 6.17572 -75.42430 7022 ft 13 kts 267°
2026-04-23 17:02 6.17544 -75.42509 7020 ft 13 kts 219°
2026-04-23 17:02 6.17469 -75.42559 7019 ft 14 kts 213°
2026-04-23 17:02 6.17389 -75.42612 7018 ft 12 kts 208°
2026-04-23 17:03 6.17320 -75.42651 7017 ft 11 kts 252°
2026-04-23 17:03 6.17347 -75.42707 7016 ft 7 kts 305°
2026-04-23 17:03 6.17349 -75.42738 7016 ft 4 kts 229°
2026-04-23 17:03 6.17323 -75.42756 7017 ft 5 kts 212°
2026-04-23 17:04 6.17297 -75.42773 7020 ft 1 kts 213°